Time,TemperatureF,DewpointF,PressureIn,WindDirection,WindDirectionDegrees,WindSpeedMPH,WindSpeedGustMPH,Humidity,HourlyPrecipIn,Conditions,Clouds,dailyrainin,SoftwareType,DateUTC
2014-02-04 00:01:00,-2.5,-10.9,30.39,North,0,12.9,17.0,67,0.00,,,0.00,WUHU216HW,2014-02-04 06:01:00,
2014-02-04 00:06:00,-2.9,-11.2,30.39,North,0,10.3,16.3,67,0.00,,,0.00,WUHU216HW,2014-02-04 06:06:00,
2014-02-04 00:11:00,-3.1,-11.1,30.39,NNE,23,14.9,14.9,68,0.00,,,0.00,WUHU216HW,2014-02-04 06:11:00,
2014-02-04 00:16:00,-3.1,-11.1,30.39,NNE,23,10.9,14.9,68,0.00,,,0.00,WUHU216HW,2014-02-04 06:16:00,
2014-02-04 00:21:00,-3.2,-11.2,30.39,NNE,23,11.4,13.1,68,0.00,,,0.00,WUHU216HW,2014-02-04 06:21:00,
2014-02-04 00:26:00,-3.2,-11.2,30.39,North,0,14.0,14.0,68,0.00,,,0.00,WUHU216HW,2014-02-04 06:26:00,
2014-02-04 00:31:00,-3.2,-11.2,30.39,North,0,12.0,14.7,68,0.00,,,0.00,WUHU216HW,2014-02-04 06:31:00,
2014-02-04 00:36:00,-3.2,-11.2,30.40,North,0,21.0,21.0,68,0.00,,,0.00,WUHU216HW,2014-02-04 06:36:00,
2014-02-04 00:41:00,-3.2,-11.2,30.40,North,0,13.1,21.0,68,0.00,,,0.00,WUHU216HW,2014-02-04 06:41:00,
2014-02-04 00:46:00,-3.2,-11.4,30.40,North,0,11.8,21.0,68,0.00,,,0.00,WUHU216HW,2014-02-04 06:46:00,
2014-02-04 00:51:00,-3.4,-11.4,30.40,North,0,13.6,14.3,68,0.00,,,0.00,WUHU216HW,2014-02-04 06:51:00,
2014-02-04 00:56:00,-3.6,-11.6,30.40,North,0,19.2,19.2,68,0.00,,,0.00,WUHU216HW,2014-02-04 06:56:00,
2014-02-04 01:01:00,-3.6,-11.6,30.40,North,0,15.6,19.2,68,0.00,,,0.00,WUHU216HW,2014-02-04 07:01:00,
2014-02-04 01:06:00,-3.6,-11.6,30.41,NNW,347,13.5,19.2,68,0.00,,,0.00,WUHU216HW,2014-02-04 07:06:00,
2014-02-04 01:11:00,-3.8,-11.8,30.40,NNE,23,16.3,20.8,68,0.00,,,0.00,WUHU216HW,2014-02-04 07:11:00,
2014-02-04 01:16:00,-3.8,-11.8,30.41,North,0,17.0,20.8,68,0.00,,,0.00,WUHU216HW,2014-02-04 07:16:00,
2014-02-04 01:21:00,-3.8,-11.8,30.40,North,0,19.0,19.0,68,0.00,,,0.00,WUHU216HW,2014-02-04 07:21:00,
2014-02-04 01:26:00,-4.0,-11.9,30.40,North,0,17.4,19.0,68,0.00,,,0.00,WUHU216HW,2014-02-04 07:26:00,
2014-02-04 01:31:00,-4.1,-12.1,30.41,North,0,14.9,19.0,68,0.00,,,0.00,WUHU216HW,2014-02-04 07:31:00,
2014-02-04 01:36:00,-4.1,-11.8,30.41,NNW,338,14.0,14.9,69,0.00,,,0.00,WUHU216HW,2014-02-04 07:36:00,
2014-02-04 01:41:00,-4.1,-11.8,30.41,North,0,12.9,14.7,69,0.00,,,0.00,WUHU216HW,2014-02-04 07:41:00,
2014-02-04 01:46:00,-4.1,-11.8,30.41,North,0,11.1,17.2,69,0.00,,,0.00,WUHU216HW,2014-02-04 07:46:00,
2014-02-04 01:51:00,-4.1,-11.8,30.41,North,0,18.1,18.1,69,0.00,,,0.00,WUHU216HW,2014-02-04 07:51:00,
2014-02-04 01:56:00,-4.1,-11.8,30.41,North,0,10.2,18.1,69,0.00,,,0.00,WUHU216HW,2014-02-04 07:56:00,
2014-02-04 02:01:00,-4.1,-11.8,30.41,North,0,13.6,18.1,69,0.00,,,0.00,WUHU216HW,2014-02-04 08:01:00,
2014-02-04 02:06:00,-3.8,-11.5,30.42,NNE,12,13.3,16.5,69,0.00,,,0.00,WUHU216HW,2014-02-04 08:06:00,
2014-02-04 02:11:00,-3.6,-11.0,30.42,North,0,15.8,15.8,70,0.00,,,0.00,WUHU216HW,2014-02-04 08:11:00,
2014-02-04 02:16:00,-3.2,-10.9,30.42,North,0,11.6,15.8,69,0.00,,,0.00,WUHU216HW,2014-02-04 08:16:00,
2014-02-04 02:21:00,-3.1,-10.4,30.42,NNE,13,12.5,14.9,70,0.00,,,0.00,WUHU216HW,2014-02-04 08:21:00,
2014-02-04 02:26:00,-2.9,-10.6,30.42,North,0,9.6,14.9,69,0.00,,,0.00,WUHU216HW,2014-02-04 08:26:00,
2014-02-04 02:31:00,-2.9,-10.6,30.42,NNE,23,11.4,14.5,69,0.00,,,0.00,WUHU216HW,2014-02-04 08:31:00,
2014-02-04 02:36:00,-2.7,-10.4,30.42,North,0,11.8,14.3,69,0.00,,,0.00,WUHU216HW,2014-02-04 08:36:00,
2014-02-04 02:41:00,-2.7,-10.4,30.42,North,0,17.0,17.0,69,0.00,,,0.00,WUHU216HW,2014-02-04 08:41:00,
2014-02-04 02:46:00,-2.7,-10.7,30.42,North,0,15.4,17.0,68,0.00,,,0.00,WUHU216HW,2014-02-04 08:46:00,
2014-02-04 02:51:00,-2.7,-10.7,30.42,North,0,13.6,15.4,68,0.00,,,0.00,WUHU216HW,2014-02-04 08:51:00,
2014-02-04 02:56:00,-2.7,-10.7,30.42,North,0,11.4,13.6,68,0.00,,,0.00,WUHU216HW,2014-02-04 08:56:00,
2014-02-04 03:01:00,-2.9,-10.9,30.43,NNE,23,11.4,13.6,68,0.00,,,0.00,WUHU216HW,2014-02-04 09:01:00,
2014-02-04 03:06:00,-3.1,-11.1,30.42,NNE,13,9.9,11.6,68,0.00,,,0.00,WUHU216HW,2014-02-04 09:06:00,
2014-02-04 03:11:00,-3.2,-11.2,30.42,North,0,9.8,11.6,68,0.00,,,0.00,WUHU216HW,2014-02-04 09:11:00,
2014-02-04 03:16:00,-3.2,-11.2,30.43,North,0,10.9,10.9,68,0.00,,,0.00,WUHU216HW,2014-02-04 09:16:00,
2014-02-04 03:21:00,-3.8,-11.5,30.42,North,0,8.9,10.9,69,0.00,,,0.00,WUHU216HW,2014-02-04 09:21:00,
2014-02-04 03:26:00,-4.1,-11.8,30.42,North,0,7.3,10.5,69,0.00,,,0.00,WUHU216HW,2014-02-04 09:26:00,
2014-02-04 03:31:00,-4.3,-12.0,30.42,North,0,7.8,9.6,69,0.00,,,0.00,WUHU216HW,2014-02-04 09:31:00,
2014-02-04 03:36:00,-4.7,-12.1,30.42,North,0,8.2,8.2,70,0.00,,,0.00,WUHU216HW,2014-02-04 09:36:00,
2014-02-04 03:41:00,-4.7,-12.1,30.42,North,0,8.2,8.9,70,0.00,,,0.00,WUHU216HW,2014-02-04 09:41:00,
2014-02-04 03:46:00,-4.9,-12.2,30.42,North,0,8.7,10.0,70,0.00,,,0.00,WUHU216HW,2014-02-04 09:46:00,
2014-02-04 03:51:00,-4.9,-12.2,30.43,North,8,9.9,13.1,70,0.00,,,0.00,WUHU216HW,2014-02-04 09:51:00,
2014-02-04 03:56:00,-5.0,-12.4,30.43,NNE,23,10.2,13.1,70,0.00,,,0.00,WUHU216HW,2014-02-04 09:56:00,
2014-02-04 04:01:00,-4.9,-12.0,30.43,North,0,11.1,11.1,71,0.00,,,0.00,WUHU216HW,2014-02-04 10:01:00,
2014-02-04 04:06:00,-4.7,-11.8,30.43,North,0,11.4,11.4,71,0.00,,,0.00,WUHU216HW,2014-02-04 10:06:00,
2014-02-04 04:11:00,-4.3,-11.4,30.42,NNE,23,14.0,14.0,71,0.00,,,0.00,WUHU216HW,2014-02-04 10:11:00,
2014-02-04 04:16:00,-4.1,-11.2,30.43,NNE,23,12.7,14.0,71,0.00,,,0.00,WUHU216HW,2014-02-04 10:16:00,
2014-02-04 04:21:00,-4.1,-11.2,30.43,North,0,17.2,17.2,71,0.00,,,0.00,WUHU216HW,2014-02-04 10:21:00,
2014-02-04 04:26:00,-4.3,-11.7,30.43,North,0,9.1,17.2,70,0.00,,,0.00,WUHU216HW,2014-02-04 10:26:00,
2014-02-04 04:31:00,-4.3,-11.7,30.43,North,0,10.9,17.2,70,0.00,,,0.00,WUHU216HW,2014-02-04 10:31:00,
2014-02-04 04:36:00,-4.7,-12.1,30.43,North,0,12.4,12.9,70,0.00,,,0.00,WUHU216HW,2014-02-04 10:36:00,
2014-02-04 04:41:00,-5.0,-12.1,30.43,NNE,23,9.1,12.9,71,0.00,,,0.00,WUHU216HW,2014-02-04 10:41:00,
2014-02-04 04:46:00,-5.2,-12.3,30.44,North,0,6.9,11.8,71,0.00,,,0.00,WUHU216HW,2014-02-04 10:46:00,
2014-02-04 04:51:00,-5.4,-12.5,30.44,North,0,6.2,8.5,71,0.00,,,0.00,WUHU216HW,2014-02-04 10:51:00,
2014-02-04 04:56:00,-5.8,-12.9,30.44,North,0,5.3,8.5,71,0.00,,,0.00,WUHU216HW,2014-02-04 10:56:00,
2014-02-04 05:01:00,-5.9,-13.0,30.44,North,0,2.2,6.4,71,0.00,,,0.00,WUHU216HW,2014-02-04 11:01:00,
2014-02-04 05:06:00,-6.3,-13.4,30.45,North,0,1.9,6.4,71,0.00,,,0.00,WUHU216HW,2014-02-04 11:06:00,
2014-02-04 05:11:00,-6.5,-13.5,30.45,North,0,2.4,4.9,71,0.00,,,0.00,WUHU216HW,2014-02-04 11:11:00,
2014-02-04 05:16:00,-6.7,-13.4,30.45,North,0,6.9,6.9,72,0.00,,,0.00,WUHU216HW,2014-02-04 11:16:00,
2014-02-04 05:21:00,-6.8,-13.6,30.45,North,0,5.3,6.9,72,0.00,,,0.00,WUHU216HW,2014-02-04 11:21:00,
2014-02-04 05:26:00,-6.8,-13.6,30.45,North,0,3.8,6.0,72,0.00,,,0.00,WUHU216HW,2014-02-04 11:26:00,
2014-02-04 05:31:00,-7.0,-13.8,30.45,North,0,5.3,5.5,72,0.00,,,0.00,WUHU216HW,2014-02-04 11:31:00,
2014-02-04 05:36:00,-7.2,-13.9,30.45,NNW,338,2.6,5.5,72,0.00,,,0.00,WUHU216HW,2014-02-04 11:36:00,
2014-02-04 05:41:00,-7.4,-14.1,30.45,NNW,338,3.3,3.3,72,0.00,,,0.00,WUHU216HW,2014-02-04 11:41:00,
2014-02-04 05:46:00,-7.7,-14.4,30.45,North,0,4.2,4.2,72,0.00,,,0.00,WUHU216HW,2014-02-04 11:46:00,
2014-02-04 05:51:00,-7.9,-14.6,30.45,NNW,338,3.7,4.4,72,0.00,,,0.00,WUHU216HW,2014-02-04 11:51:00,
2014-02-04 05:56:00,-8.1,-14.8,30.45,NNW,338,2.2,4.4,72,0.00,,,0.00,WUHU216HW,2014-02-04 11:56:00,
2014-02-04 06:01:00,-8.3,-15.0,30.45,NNW,338,5.3,5.3,72,0.00,,,0.00,WUHU216HW,2014-02-04 12:01:00,
2014-02-04 06:06:00,-8.3,-14.7,30.45,North,0,5.1,7.8,73,0.00,,,0.00,WUHU216HW,2014-02-04 12:06:00,
2014-02-04 06:11:00,-8.5,-14.9,30.45,North,0,3.8,7.8,73,0.00,,,0.00,WUHU216HW,2014-02-04 12:11:00,
2014-02-04 06:16:00,-8.5,-14.9,30.45,North,0,3.8,5.5,73,0.00,,,0.00,WUHU216HW,2014-02-04 12:16:00,
2014-02-04 06:21:00,-8.5,-14.6,30.45,North,0,4.7,5.8,74,0.00,,,0.00,WUHU216HW,2014-02-04 12:21:00,
2014-02-04 06:26:00,-8.5,-14.6,30.45,North,0,4.9,5.8,74,0.00,,,0.00,WUHU216HW,2014-02-04 12:26:00,
2014-02-04 06:31:00,-8.6,-14.8,30.45,North,0,4.2,5.5,74,0.00,,,0.00,WUHU216HW,2014-02-04 12:31:00,
2014-02-04 06:36:00,-8.6,-15.1,30.45,North,0,5.8,5.8,73,0.00,,,0.00,WUHU216HW,2014-02-04 12:36:00,
2014-02-04 06:41:00,-8.8,-15.2,30.45,North,0,5.5,5.8,73,0.00,,,0.00,WUHU216HW,2014-02-04 12:41:00,
2014-02-04 06:46:00,-8.8,-15.2,30.45,North,0,3.1,6.2,73,0.00,,,0.00,WUHU216HW,2014-02-04 12:46:00,
2014-02-04 06:51:00,-8.8,-15.0,30.46,North,0,5.5,6.2,74,0.00,,,0.00,WUHU216HW,2014-02-04 12:51:00,
2014-02-04 06:56:00,-8.8,-15.0,30.45,North,0,6.9,6.9,74,0.00,,,0.00,WUHU216HW,2014-02-04 12:56:00,
2014-02-04 07:01:00,-8.6,-15.1,30.45,North,0,4.4,6.9,73,0.00,,,0.00,WUHU216HW,2014-02-04 13:01:00,
2014-02-04 07:06:00,-8.8,-15.2,30.46,North,0,5.3,6.9,73,0.00,,,0.00,WUHU216HW,2014-02-04 13:06:00,
2014-02-04 07:11:00,-8.8,-15.2,30.46,North,0,5.5,5.5,73,0.00,,,0.00,WUHU216HW,2014-02-04 13:11:00,
2014-02-04 07:16:00,-8.8,-15.0,30.46,North,0,5.5,6.4,74,0.00,,,0.00,WUHU216HW,2014-02-04 13:16:00,
2014-02-04 07:21:00,-8.8,-15.1,30.46,North,0,5.4,6.7,74,0.00,,,0.00,WUHU216HW,2014-02-04 13:21:00,
2014-02-04 07:26:00,-9.0,-15.1,30.45,North,0,7.1,7.1,74,0.00,,,0.00,WUHU216HW,2014-02-04 13:26:00,
2014-02-04 07:31:00,-8.8,-15.0,30.46,North,0,7.6,7.6,74,0.00,,,0.00,WUHU216HW,2014-02-04 13:31:00,
2014-02-04 07:36:00,-8.8,-14.7,30.45,North,0,6.7,7.6,75,0.00,,,0.00,WUHU216HW,2014-02-04 13:36:00,
2014-02-04 07:41:00,-8.3,-14.2,30.45,North,0,6.2,10.2,75,0.00,,,0.00,WUHU216HW,2014-02-04 13:41:00,
2014-02-04 07:46:00,-8.5,-14.4,30.46,North,0,6.7,10.2,75,0.00,,,0.00,WUHU216HW,2014-02-04 13:46:00,
2014-02-04 07:51:00,-8.5,-14.6,30.46,North,0,4.7,6.7,74,0.00,,,0.00,WUHU216HW,2014-02-04 13:51:00,
2014-02-04 07:56:00,-8.5,-14.6,30.47,North,0,4.9,6.7,74,0.00,,,0.00,WUHU216HW,2014-02-04 13:56:00,
2014-02-04 08:01:00,-8.5,-14.6,30.47,North,0,5.3,6.4,74,0.00,,,0.00,WUHU216HW,2014-02-04 14:01:00,
2014-02-04 08:06:00,-8.5,-14.6,30.47,North,0,6.9,6.9,74,0.00,,,0.00,WUHU216HW,2014-02-04 14:06:00,
2014-02-04 08:11:00,-8.5,-14.6,30.47,North,0,6.9,6.9,74,0.00,,,0.00,WUHU216HW,2014-02-04 14:11:00,
2014-02-04 08:16:00,-8.3,-14.4,30.47,North,0,5.1,6.9,74,0.00,,,0.00,WUHU216HW,2014-02-04 14:16:00,
2014-02-04 08:21:00,-8.3,-14.4,30.48,NNE,23,4.2,5.1,74,0.00,,,0.00,WUHU216HW,2014-02-04 14:21:00,
2014-02-04 08:26:00,-7.9,-14.1,30.47,NNE,23,2.2,4.4,74,0.00,,,0.00,WUHU216HW,2014-02-04 14:26:00,
2014-02-04 08:31:00,-7.7,-13.9,30.48,NNE,23,5.5,5.5,74,0.00,,,0.00,WUHU216HW,2014-02-04 14:31:00,
2014-02-04 08:36:00,-6.7,-12.9,30.48,North,0,9.1,9.1,74,0.00,,,0.00,WUHU216HW,2014-02-04 14:36:00,
2014-02-04 08:41:00,-5.9,-12.5,30.47,NNE,23,9.3,9.3,73,0.00,,,0.00,WUHU216HW,2014-02-04 14:41:00,
2014-02-04 08:43:00,-5.6,-12.4,30.47,NNE,23,10.9,10.9,72,0.00,,,0.00,WUHU216HW,2014-02-04 14:43:00,
2014-02-04 08:48:00,-4.9,-12.0,30.47,NNE,23,10.0,10.9,71,0.00,,,0.00,WUHU216HW,2014-02-04 14:48:00,
2014-02-04 08:53:00,-4.1,-11.5,30.47,North,9,6.8,10.9,70,0.00,,,0.00,WUHU216HW,2014-02-04 14:53:00,
2014-02-04 08:58:00,-3.8,-11.5,30.48,North,0,7.8,8.9,69,0.00,,,0.00,WUHU216HW,2014-02-04 14:58:00,
2014-02-04 09:03:00,-3.8,-11.5,30.48,NNE,23,5.3,8.9,69,0.00,,,0.00,WUHU216HW,2014-02-04 15:03:00,
2014-02-04 09:08:00,-4.1,-12.1,30.48,North,0,8.2,8.2,68,0.00,,,0.00,WUHU216HW,2014-02-04 15:08:00,
2014-02-04 09:13:00,-4.3,-12.0,30.49,North,0,7.1,8.2,69,0.00,,,0.00,WUHU216HW,2014-02-04 15:13:00,
2014-02-04 09:18:00,-4.7,-12.4,30.49,North,0,6.9,8.9,69,0.00,,,0.00,WUHU216HW,2014-02-04 15:18:00,
2014-02-04 09:23:00,-4.3,-12.0,30.49,North,11,8.4,8.9,69,0.00,,,0.00,WUHU216HW,2014-02-04 15:23:00,
2014-02-04 09:28:00,-4.1,-11.8,30.49,North,0,8.0,8.7,69,0.00,,,0.00,WUHU216HW,2014-02-04 15:28:00,
2014-02-04 09:33:00,-3.6,-11.6,30.49,NNE,23,6.2,8.0,68,0.00,,,0.00,WUHU216HW,2014-02-04 15:33:00,
2014-02-04 09:38:00,-2.7,-11.0,30.50,North,0,8.3,8.9,67,0.00,,,0.00,WUHU216HW,2014-02-04 15:38:00,
2014-02-04 09:43:00,-2.0,-10.3,30.49,North,0,6.4,8.9,67,0.00,,,0.00,WUHU216HW,2014-02-04 15:43:00,
2014-02-04 09:48:00,-1.4,-10.2,30.49,North,0,8.7,8.7,66,0.00,,,0.00,WUHU216HW,2014-02-04 15:48:00,
2014-02-04 09:53:00,-0.2,-9.6,30.50,NNE,23,7.1,9.3,64,0.00,,,0.00,WUHU216HW,2014-02-04 15:53:00,
2014-02-04 09:58:00,0.1,-9.6,30.50,North,0,6.7,9.3,63,0.00,,,0.00,WUHU216HW,2014-02-04 15:58:00,
2014-02-04 10:03:00,0.5,-9.2,30.50,NNE,23,5.1,9.1,63,0.00,,,0.00,WUHU216HW,2014-02-04 16:03:00,
2014-02-04 10:08:00,0.0,-10.3,30.50,NNE,23,7.6,7.6,61,0.00,,,0.00,WUHU216HW,2014-02-04 16:08:00,
2014-02-04 10:13:00,-0.5,-10.5,30.50,NNE,23,6.2,7.6,62,0.00,,,0.00,WUHU216HW,2014-02-04 16:13:00,
2014-02-04 10:18:00,-0.4,-10.1,30.50,North,0,7.1,7.6,63,0.00,,,0.00,WUHU216HW,2014-02-04 16:18:00,
2014-02-04 10:23:00,0.3,-9.4,30.50,North,11,7.0,7.6,63,0.00,,,0.00,WUHU216HW,2014-02-04 16:23:00,
2014-02-04 10:28:00,1.4,-8.7,30.50,NNE,23,6.2,7.6,62,0.00,,,0.00,WUHU216HW,2014-02-04 16:28:00,
2014-02-04 10:32:00,2.3,-8.1,30.51,North,0,6.4,7.3,61,0.00,,,0.00,WUHU216HW,2014-02-04 16:32:00,
2014-02-04 10:38:00,3.3,-7.4,30.51,NNE,23,7.6,7.6,60,0.00,,,0.00,WUHU216HW,2014-02-04 16:38:00,
2014-02-04 10:43:00,3.9,-7.3,30.51,North,0,6.2,7.6,59,0.00,,,0.00,WUHU216HW,2014-02-04 16:43:00,
2014-02-04 10:48:00,4.6,-7.0,30.50,North,0,8.0,8.0,58,0.00,,,0.00,WUHU216HW,2014-02-04 16:48:00,
2014-02-04 10:53:00,5.1,-7.2,30.51,North,0,7.6,8.2,57,0.00,,,0.00,WUHU216HW,2014-02-04 16:53:00,
2014-02-04 10:58:00,5.3,-7.0,30.51,North,0,6.9,9.1,56,0.00,,,0.00,WUHU216HW,2014-02-04 16:58:00,
2014-02-04 11:03:00,5.5,-6.9,30.52,North,0,6.7,9.1,56,0.00,,,0.00,WUHU216HW,2014-02-04 17:03:00,
2014-02-04 11:08:00,5.9,-6.5,30.51,North,0,5.1,6.7,56,0.00,,,0.00,WUHU216HW,2014-02-04 17:08:00,
2014-02-04 11:13:00,5.5,-7.2,30.51,North,0,5.8,6.0,55,0.00,,,0.00,WUHU216HW,2014-02-04 17:13:00,
2014-02-04 11:17:00,4.8,-7.9,30.51,NNW,338,2.6,5.8,55,0.00,,,0.00,WUHU216HW,2014-02-04 17:17:00,
2014-02-04 11:22:00,3.7,-8.6,30.51,North,0,10.0,10.0,56,0.00,,,0.00,WUHU216HW,2014-02-04 17:22:00,
2014-02-04 11:27:00,2.4,-9.8,30.51,North,0,8.9,10.0,56,0.00,,,0.00,WUHU216HW,2014-02-04 17:27:00,
2014-02-04 11:32:00,1.9,-9.5,30.51,North,0,8.9,10.0,58,0.00,,,0.00,WUHU216HW,2014-02-04 17:32:00,
2014-02-04 11:37:00,2.1,-9.0,30.50,North,0,9.1,9.6,59,0.00,,,0.00,WUHU216HW,2014-02-04 17:37:00,
2014-02-04 11:42:00,2.8,-8.3,30.51,North,0,8.7,9.1,59,0.00,,,0.00,WUHU216HW,2014-02-04 17:42:00,
2014-02-04 11:47:00,3.0,-8.5,30.51,NNW,338,7.3,9.1,58,0.00,,,0.00,WUHU216HW,2014-02-04 17:47:00,
2014-02-04 11:52:00,3.7,-7.8,30.50,North,0,8.5,8.9,58,0.00,,,0.00,WUHU216HW,2014-02-04 17:52:00,
2014-02-04 11:57:00,3.7,-8.2,30.50,North,0,9.3,9.3,57,0.00,,,0.00,WUHU216HW,2014-02-04 17:57:00,
2014-02-04 12:02:00,3.7,-7.8,30.50,North,0,6.7,9.3,58,0.00,,,0.00,WUHU216HW,2014-02-04 18:02:00,
2014-02-04 12:07:00,4.1,-7.5,30.50,NNW,338,10.5,10.5,58,0.00,,,0.00,WUHU216HW,2014-02-04 18:07:00,
2014-02-04 12:12:00,4.6,-7.0,30.50,North,0,2.5,10.5,58,0.00,,,0.00,WUHU216HW,2014-02-04 18:12:00,
2014-02-04 12:17:00,4.6,-7.4,30.50,North,0,10.0,10.5,57,0.00,,,0.00,WUHU216HW,2014-02-04 18:17:00,
2014-02-04 12:22:00,4.6,-7.4,30.50,North,0,9.6,10.0,57,0.00,,,0.00,WUHU216HW,2014-02-04 18:22:00,
2014-02-04 12:27:00,4.8,-7.2,30.49,North,0,10.7,10.7,57,0.00,,,0.00,WUHU216HW,2014-02-04 18:27:00,
2014-02-04 12:32:00,4.4,-7.5,30.49,North,0,11.4,11.4,57,0.00,,,0.00,WUHU216HW,2014-02-04 18:32:00,
2014-02-04 12:37:00,3.5,-8.4,30.50,NNW,338,10.5,11.4,57,0.00,,,0.00,WUHU216HW,2014-02-04 18:37:00,
2014-02-04 12:42:00,3.0,-8.5,30.50,North,0,10.0,10.9,58,0.00,,,0.00,WUHU216HW,2014-02-04 18:42:00,
2014-02-04 12:46:00,3.0,-8.5,30.49,North,0,12.7,12.7,58,0.00,,,0.00,WUHU216HW,2014-02-04 18:46:00,
2014-02-04 12:51:00,3.7,-7.8,30.49,North,0,14.3,14.3,58,0.00,,,0.00,WUHU216HW,2014-02-04 18:51:00,
2014-02-04 12:56:00,3.3,-8.5,30.49,North,0,16.1,16.1,57,0.00,,,0.00,WUHU216HW,2014-02-04 18:56:00,
2014-02-04 13:01:00,3.3,-8.5,30.49,North,0,15.6,16.1,57,0.00,,,0.00,WUHU216HW,2014-02-04 19:01:00,
2014-02-04 13:06:00,3.5,-8.4,30.48,North,0,14.0,16.1,57,0.00,,,0.00,WUHU216HW,2014-02-04 19:06:00,
2014-02-04 13:11:00,3.7,-8.6,30.48,North,0,15.6,15.6,56,0.00,,,0.00,WUHU216HW,2014-02-04 19:11:00,
2014-02-04 13:16:00,3.7,-8.2,30.49,North,0,14.9,15.6,57,0.00,,,0.00,WUHU216HW,2014-02-04 19:16:00,
2014-02-04 13:21:00,3.0,-9.2,30.47,North,0,14.5,18.5,56,0.00,,,0.00,WUHU216HW,2014-02-04 19:21:00,
2014-02-04 13:26:00,2.8,-8.7,30.47,North,0,15.6,18.5,58,0.00,,,0.00,WUHU216HW,2014-02-04 19:26:00,
2014-02-04 13:31:00,2.8,-8.7,30.47,North,0,15.2,15.6,58,0.00,,,0.00,WUHU216HW,2014-02-04 19:31:00,
2014-02-04 13:36:00,2.8,-8.7,30.47,North,0,16.1,16.1,58,0.00,,,0.00,WUHU216HW,2014-02-04 19:36:00,
2014-02-04 13:41:00,2.4,-8.6,30.46,NNE,23,13.4,16.3,59,0.00,,,0.00,WUHU216HW,2014-02-04 19:41:00,
2014-02-04 13:46:00,2.3,-8.8,30.46,North,0,13.1,16.3,59,0.00,,,0.00,WUHU216HW,2014-02-04 19:46:00,
2014-02-04 13:51:00,2.4,-8.6,30.45,NNE,13,17.3,19.2,59,0.00,,,0.00,WUHU216HW,2014-02-04 19:51:00,
2014-02-04 13:56:00,2.3,-8.5,30.45,North,0,14.5,19.2,60,0.00,,,0.00,WUHU216HW,2014-02-04 19:56:00,
2014-02-04 14:01:00,2.4,-8.6,30.45,North,0,16.3,17.0,59,0.00,,,0.00,WUHU216HW,2014-02-04 20:01:00,
2014-02-04 14:06:00,2.8,-7.9,30.45,North,0,14.9,17.0,60,0.00,,,0.00,WUHU216HW,2014-02-04 20:06:00,
2014-02-04 14:11:00,2.6,-8.1,30.45,NNE,23,15.6,16.3,60,0.00,,,0.00,WUHU216HW,2014-02-04 20:11:00,
2014-02-04 14:16:00,2.4,-8.6,30.45,North,0,17.4,17.4,59,0.00,,,0.00,WUHU216HW,2014-02-04 20:16:00,
2014-02-04 14:21:00,2.8,-7.9,30.46,North,0,14.5,17.4,60,0.00,,,0.00,WUHU216HW,2014-02-04 20:21:00,
2014-02-04 14:26:00,2.8,-8.3,30.47,NNE,23,12.0,17.0,59,0.00,,,0.00,WUHU216HW,2014-02-04 20:26:00,
2014-02-04 14:31:00,3.0,-8.1,30.47,NNW,338,12.9,17.0,59,0.00,,,0.00,WUHU216HW,2014-02-04 20:31:00,
2014-02-04 14:36:00,2.4,-8.6,30.47,North,0,10.5,13.1,59,0.00,,,0.00,WUHU216HW,2014-02-04 20:36:00,
2014-02-04 14:41:00,1.9,-9.2,30.47,NNE,23,15.4,15.4,59,0.00,,,0.00,WUHU216HW,2014-02-04 20:41:00,
2014-02-04 14:46:00,1.5,-9.2,30.47,North,0,12.7,15.6,60,0.00,,,0.00,WUHU216HW,2014-02-04 20:46:00,
2014-02-04 14:51:00,2.3,-7.8,30.48,NNE,12,13.5,16.3,62,0.00,,,0.00,WUHU216HW,2014-02-04 20:51:00,
2014-02-04 14:56:00,2.4,-7.9,30.48,North,0,13.4,16.3,61,0.00,,,0.00,WUHU216HW,2014-02-04 20:56:00,
2014-02-04 15:01:00,2.4,-8.3,30.49,North,0,12.9,15.4,60,0.00,,,0.00,WUHU216HW,2014-02-04 21:01:00,
2014-02-04 15:06:00,2.3,-8.5,30.49,North,0,14.5,15.4,60,0.00,,,0.00,WUHU216HW,2014-02-04 21:06:00,
2014-02-04 15:11:00,2.1,-8.6,30.49,NNE,23,12.3,14.5,60,0.00,,,0.00,WUHU216HW,2014-02-04 21:11:00,
2014-02-04 15:16:00,2.1,-8.3,30.50,NNE,23,10.5,14.5,61,0.00,,,0.00,WUHU216HW,2014-02-04 21:16:00,
2014-02-04 15:21:00,2.3,-8.1,30.50,North,9,8.9,13.4,61,0.00,,,0.00,WUHU216HW,2014-02-04 21:21:00,
2014-02-04 15:26:00,2.1,-8.3,30.50,NNE,23,12.9,12.9,61,0.00,,,0.00,WUHU216HW,2014-02-04 21:26:00,
2014-02-04 15:31:00,2.1,-8.3,30.50,NNE,23,8.2,12.9,61,0.00,,,0.00,WUHU216HW,2014-02-04 21:31:00,
2014-02-04 15:36:00,2.3,-8.1,30.50,NNE,23,9.8,11.1,61,0.00,,,0.00,WUHU216HW,2014-02-04 21:36:00,
2014-02-04 15:41:00,1.9,-8.5,30.50,North,0,8.7,11.1,61,0.00,,,0.00,WUHU216HW,2014-02-04 21:41:00,
2014-02-04 15:46:00,1.9,-8.2,30.51,NNE,23,8.2,8.7,62,0.00,,,0.00,WUHU216HW,2014-02-04 21:46:00,
2014-02-04 15:51:00,1.9,-8.2,30.51,North,0,8.8,8.9,62,0.00,,,0.00,WUHU216HW,2014-02-04 21:51:00,
2014-02-04 15:56:00,1.9,-8.2,30.51,NNE,23,12.3,12.3,62,0.00,,,0.00,WUHU216HW,2014-02-04 21:56:00,
2014-02-04 16:01:00,1.7,-8.3,30.51,NNE,23,11.4,12.3,62,0.00,,,0.00,WUHU216HW,2014-02-04 22:01:00,
2014-02-04 16:06:00,1.2,-8.9,30.51,North,0,10.9,11.4,62,0.00,,,0.00,WUHU216HW,2014-02-04 22:06:00,
2014-02-04 16:11:00,1.2,-8.9,30.51,North,0,14.5,14.5,62,0.00,,,0.00,WUHU216HW,2014-02-04 22:11:00,
2014-02-04 16:16:00,1.2,-9.2,30.52,NNE,23,11.8,14.5,61,0.00,,,0.00,WUHU216HW,2014-02-04 22:16:00,
2014-02-04 16:20:00,1.0,-9.4,30.51,NNE,23,9.1,13.1,61,0.00,,,0.00,WUHU216HW,2014-02-04 22:20:00,
2014-02-04 16:25:00,0.8,-9.2,30.51,North,0,13.4,13.4,62,0.00,,,0.00,WUHU216HW,2014-02-04 22:25:00,
2014-02-04 16:31:00,0.5,-9.5,30.51,North,0,10.9,15.4,62,0.00,,,0.00,WUHU216HW,2014-02-04 22:31:00,
2014-02-04 16:36:00,0.3,-9.7,30.50,North,0,12.3,15.4,62,0.00,,,0.00,WUHU216HW,2014-02-04 22:36:00,
2014-02-04 16:40:00,0.3,-9.7,30.50,North,0,11.6,15.2,62,0.00,,,0.00,WUHU216HW,2014-02-04 22:40:00,
2014-02-04 16:45:00,0.1,-9.6,30.50,North,0,9.8,12.9,63,0.00,,,0.00,WUHU216HW,2014-02-04 22:45:00,
2014-02-04 16:50:00,-0.2,-9.9,30.50,North,0,12.6,13.6,63,0.00,,,0.00,WUHU216HW,2014-02-04 22:50:00,
2014-02-04 16:55:00,-0.5,-10.2,30.50,North,0,16.1,16.1,63,0.00,,,0.00,WUHU216HW,2014-02-04 22:55:00,
2014-02-04 17:00:00,-0.7,-10.4,30.50,North,0,7.3,16.1,63,0.00,,,0.00,WUHU216HW,2014-02-04 23:00:00,
2014-02-04 17:05:00,-1.1,-10.8,30.50,NNW,348,9.4,10.2,63,0.00,,,0.00,WUHU216HW,2014-02-04 23:05:00,
2014-02-04 17:10:00,-1.4,-11.1,30.50,North,0,10.9,10.9,63,0.00,,,0.00,WUHU216HW,2014-02-04 23:10:00,
2014-02-04 17:15:00,-1.4,-11.1,30.50,NNW,338,9.1,10.9,63,0.00,,,0.00,WUHU216HW,2014-02-04 23:15:00,
2014-02-04 17:20:00,-1.6,-11.3,30.51,North,0,8.6,10.9,63,0.00,,,0.00,WUHU216HW,2014-02-04 23:20:00,
2014-02-04 17:25:00,-1.6,-11.0,30.51,North,0,11.1,11.1,64,0.00,,,0.00,WUHU216HW,2014-02-04 23:25:00,
2014-02-04 17:30:00,-1.8,-11.1,30.51,NNE,23,9.8,11.1,64,0.00,,,0.00,WUHU216HW,2014-02-04 23:30:00,
2014-02-04 17:35:00,-1.8,-11.1,30.51,North,0,7.3,9.8,64,0.00,,,0.00,WUHU216HW,2014-02-04 23:35:00,
2014-02-04 17:40:00,-2.0,-11.0,30.51,North,0,6.7,9.1,65,0.00,,,0.00,WUHU216HW,2014-02-04 23:40:00,
2014-02-04 17:45:00,-2.2,-11.2,30.51,North,0,8.9,10.5,65,0.00,,,0.00,WUHU216HW,2014-02-04 23:45:00,
2014-02-04 17:50:00,-2.2,-10.8,30.52,North,0,6.7,10.5,66,0.00,,,0.00,WUHU216HW,2014-02-04 23:50:00,
2014-02-04 17:55:00,-2.3,-11.0,30.51,North,0,6.2,7.3,66,0.00,,,0.00,WUHU216HW,2014-02-04 23:55:00,
2014-02-04 18:00:00,-2.3,-10.7,30.51,North,0,6.4,6.9,67,0.00,,,0.00,WUHU216HW,2014-02-05 00:00:00,
2014-02-04 18:05:00,-2.3,-10.7,30.51,North,0,6.1,6.9,67,0.00,,,0.00,WUHU216HW,2014-02-05 00:05:00,
2014-02-04 18:10:00,-2.3,-10.7,30.51,North,0,6.0,7.8,67,0.00,,,0.00,WUHU216HW,2014-02-05 00:10:00,
2014-02-04 18:15:00,-2.5,-10.9,30.52,North,0,7.0,7.8,67,0.00,,,0.00,WUHU216HW,2014-02-05 00:15:00,
2014-02-04 18:20:00,-2.3,-10.7,30.51,North,0,6.9,7.1,67,0.00,,,0.00,WUHU216HW,2014-02-05 00:20:00,
2014-02-04 18:25:00,-2.3,-10.7,30.52,North,0,8.5,8.5,67,0.00,,,0.00,WUHU216HW,2014-02-05 00:25:00,
2014-02-04 18:30:00,-2.3,-10.7,30.51,North,0,10.9,10.9,67,0.00,,,0.00,WUHU216HW,2014-02-05 00:30:00,
2014-02-04 18:35:00,-2.3,-10.7,30.51,North,0,9.1,10.9,67,0.00,,,0.00,WUHU216HW,2014-02-05 00:35:00,
2014-02-04 18:40:00,-2.3,-10.7,30.51,North,0,9.4,12.0,67,0.00,,,0.00,WUHU216HW,2014-02-05 00:40:00,
2014-02-04 18:45:00,-2.3,-10.7,30.51,North,0,6.4,12.0,67,0.00,,,0.00,WUHU216HW,2014-02-05 00:45:00,
2014-02-04 18:50:00,-2.2,-10.5,30.52,North,0,10.6,11.4,67,0.00,,,0.00,WUHU216HW,2014-02-05 00:50:00,
2014-02-04 18:55:00,-2.2,-10.5,30.51,North,0,7.7,11.4,67,0.00,,,0.00,WUHU216HW,2014-02-05 00:55:00,
2014-02-04 19:00:00,-2.2,-10.5,30.52,North,0,9.3,9.8,67,0.00,,,0.00,WUHU216HW,2014-02-05 01:00:00,
2014-02-04 19:05:00,-2.2,-10.5,30.52,North,0,12.0,12.0,67,0.00,,,0.00,WUHU216HW,2014-02-05 01:05:00,
2014-02-04 19:10:00,-2.2,-10.5,30.52,North,0,8.7,12.0,67,0.00,,,0.00,WUHU216HW,2014-02-05 01:10:00,
2014-02-04 19:15:00,-2.2,-10.5,30.52,North,0,9.3,12.0,67,0.00,,,0.00,WUHU216HW,2014-02-05 01:15:00,
2014-02-04 19:20:00,-2.2,-10.5,30.52,NNW,345,9.9,13.1,67,0.00,,,0.00,WUHU216HW,2014-02-05 01:20:00,
2014-02-04 19:25:00,-2.0,-10.3,30.51,NNW,338,9.9,13.1,67,0.00,,,0.00,WUHU216HW,2014-02-05 01:25:00,
2014-02-04 19:30:00,-2.0,-10.0,30.51,North,0,6.9,10.7,68,0.00,,,0.00,WUHU216HW,2014-02-05 01:30:00,
2014-02-04 19:35:00,-2.0,-10.0,30.51,North,0,6.7,13.1,68,0.00,,,0.00,WUHU216HW,2014-02-05 01:35:00,
2014-02-04 19:40:00,-2.0,-10.0,30.51,NNW,338,12.3,13.1,68,0.00,,,0.00,WUHU216HW,2014-02-05 01:40:00,
2014-02-04 19:45:00,-2.0,-10.0,30.51,North,0,13.6,13.6,68,0.00,,,0.00,WUHU216HW,2014-02-05 01:45:00,
2014-02-04 19:50:00,-1.8,-9.9,30.51,North,351,12.3,15.6,68,0.00,,,0.00,WUHU216HW,2014-02-05 01:50:00,
2014-02-04 19:55:00,-1.8,-9.9,30.51,NNW,338,12.7,15.6,68,0.00,,,0.00,WUHU216HW,2014-02-05 01:55:00,
2014-02-04 20:00:00,-1.8,-10.2,30.51,NNW,338,14.5,14.5,67,0.00,,,0.00,WUHU216HW,2014-02-05 02:00:00,
2014-02-04 20:05:00,-1.8,-10.2,30.51,North,0,11.8,14.5,67,0.00,,,0.00,WUHU216HW,2014-02-05 02:05:00,
2014-02-04 20:10:00,-1.8,-10.2,30.52,NNW,338,11.6,13.4,67,0.00,,,0.00,WUHU216HW,2014-02-05 02:10:00,
2014-02-04 20:15:00,-1.8,-10.2,30.52,North,0,11.4,13.4,67,0.00,,,0.00,WUHU216HW,2014-02-05 02:15:00,
2014-02-04 20:20:00,-1.8,-10.2,30.52,NNW,338,15.3,16.3,67,0.00,,,0.00,WUHU216HW,2014-02-05 02:20:00,
2014-02-04 20:25:00,-1.8,-9.9,30.52,NW,315,9.1,16.3,68,0.00,,,0.00,WUHU216HW,2014-02-05 02:25:00,
2014-02-04 20:30:00,-1.8,-9.9,30.52,NNW,338,11.1,14.3,68,0.00,,,0.00,WUHU216HW,2014-02-05 02:30:00,
2014-02-04 20:35:00,-1.8,-9.9,30.52,NNW,338,12.7,14.5,68,0.00,,,0.00,WUHU216HW,2014-02-05 02:35:00,
2014-02-04 20:40:00,-1.8,-9.9,30.51,North,0,12.7,14.5,68,0.00,,,0.00,WUHU216HW,2014-02-05 02:40:00,
2014-02-04 20:45:00,-1.8,-9.9,30.51,North,0,12.5,13.6,68,0.00,,,0.00,WUHU216HW,2014-02-05 02:45:00,
2014-02-04 20:50:00,-1.8,-9.9,30.51,North,0,19.2,19.2,68,0.00,,,0.00,WUHU216HW,2014-02-05 02:50:00,
2014-02-04 20:55:00,-1.8,-9.5,30.51,North,0,8.7,19.2,69,0.00,,,0.00,WUHU216HW,2014-02-05 02:55:00,
2014-02-04 21:00:00,-1.8,-9.5,30.51,NNW,338,13.8,19.2,69,0.00,,,0.00,WUHU216HW,2014-02-05 03:00:00,
2014-02-04 21:05:00,-1.8,-9.5,30.51,NNW,338,14.0,14.0,69,0.00,,,0.00,WUHU216HW,2014-02-05 03:05:00,
2014-02-04 21:10:00,-2.0,-9.7,30.51,NNW,338,7.8,14.0,69,0.00,,,0.00,WUHU216HW,2014-02-05 03:10:00,
2014-02-04 21:15:00,-2.0,-10.0,30.51,North,0,14.5,15.8,68,0.00,,,0.00,WUHU216HW,2014-02-05 03:15:00,
2014-02-04 21:20:00,-2.0,-10.0,30.51,NNW,338,11.6,16.7,68,0.00,,,0.00,WUHU216HW,2014-02-05 03:20:00,
2014-02-04 21:25:00,-2.0,-10.0,30.51,North,0,15.6,16.7,68,0.00,,,0.00,WUHU216HW,2014-02-05 03:25:00,
2014-02-04 21:30:00,-2.0,-10.0,30.51,North,0,17.4,17.4,68,0.00,,,0.00,WUHU216HW,2014-02-05 03:30:00,
2014-02-04 21:35:00,-2.0,-10.0,30.51,NNW,338,18.3,18.3,68,0.00,,,0.00,WUHU216HW,2014-02-05 03:35:00,
2014-02-04 21:40:00,-2.0,-10.3,30.51,NNW,347,10.1,18.3,67,0.00,,,0.00,WUHU216HW,2014-02-05 03:40:00,
2014-02-04 21:45:00,-2.0,-10.3,30.51,WNW,293,9.6,18.3,67,0.00,,,0.00,WUHU216HW,2014-02-05 03:45:00,
2014-02-04 21:50:00,-1.8,-10.2,30.52,North,0,11.8,14.7,67,0.00,,,0.00,WUHU216HW,2014-02-05 03:50:00,
2014-02-04 21:55:00,-2.0,-10.3,30.52,NW,315,12.9,12.9,67,0.00,,,0.00,WUHU216HW,2014-02-05 03:55:00,
2014-02-04 22:00:00,-1.8,-10.2,30.52,North,0,12.0,12.9,67,0.00,,,0.00,WUHU216HW,2014-02-05 04:00:00,
2014-02-04 22:05:00,-2.0,-10.3,30.52,NNW,338,12.7,12.9,67,0.00,,,0.00,WUHU216HW,2014-02-05 04:05:00,
2014-02-04 22:10:00,-2.0,-10.3,30.52,North,0,10.5,12.7,67,0.00,,,0.00,WUHU216HW,2014-02-05 04:10:00,
2014-02-04 22:15:00,-2.0,-10.3,30.52,North,0,10.7,12.7,67,0.00,,,0.00,WUHU216HW,2014-02-05 04:15:00,
2014-02-04 22:20:00,-2.0,-10.0,30.52,NNW,338,8.5,11.1,68,0.00,,,0.00,WUHU216HW,2014-02-05 04:20:00,
2014-02-04 22:25:00,-2.2,-10.2,30.53,NNW,338,10.5,10.5,68,0.00,,,0.00,WUHU216HW,2014-02-05 04:25:00,
2014-02-04 22:30:00,-2.2,-10.2,30.53,NNW,338,9.1,11.8,68,0.00,,,0.00,WUHU216HW,2014-02-05 04:30:00,
2014-02-04 22:35:00,-2.2,-10.2,30.53,WNW,293,6.9,11.8,68,0.00,,,0.00,WUHU216HW,2014-02-05 04:35:00,
2014-02-04 22:40:00,-2.2,-10.2,30.53,NW,315,12.3,12.3,68,0.00,,,0.00,WUHU216HW,2014-02-05 04:40:00,
2014-02-04 22:45:00,-2.2,-10.2,30.53,NW,315,6.0,12.3,68,0.00,,,0.00,WUHU216HW,2014-02-05 04:45:00,
2014-02-04 22:50:00,-2.3,-10.0,30.53,NNW,338,7.3,15.4,69,0.00,,,0.00,WUHU216HW,2014-02-05 04:50:00,
2014-02-04 22:55:00,-2.3,-10.0,30.53,NW,315,12.9,15.4,69,0.00,,,0.00,WUHU216HW,2014-02-05 04:55:00,
2014-02-04 23:00:00,-2.3,-10.0,30.53,NW,315,10.0,13.8,69,0.00,,,0.00,WUHU216HW,2014-02-05 05:00:00,
2014-02-04 23:01:00,-2.3,-10.0,30.53,NW,315,10.0,13.8,69,0.00,,,0.00,WUHU216HW,2014-02-05 05:01:00,
2014-02-04 23:06:00,-2.3,-10.0,30.53,NW,315,13.6,13.6,69,0.00,,,0.00,WUHU216HW,2014-02-05 05:06:00,
2014-02-04 23:11:00,-2.3,-10.0,30.53,NNW,338,8.2,13.6,69,0.00,,,0.00,WUHU216HW,2014-02-05 05:11:00,
2014-02-04 23:16:00,-2.3,-10.0,30.53,NNW,327,11.7,12.7,69,0.00,,,0.00,WUHU216HW,2014-02-05 05:16:00,
2014-02-04 23:21:00,-2.2,-9.9,30.53,NW,315,6.9,16.1,69,0.00,,,0.00,WUHU216HW,2014-02-05 05:21:00,
2014-02-04 23:26:00,-2.3,-9.7,30.53,NW,315,11.6,16.1,70,0.00,,,0.00,WUHU216HW,2014-02-05 05:26:00,
2014-02-04 23:31:00,-2.2,-9.5,30.53,North,0,10.7,11.6,70,0.00,,,0.00,WUHU216HW,2014-02-05 05:31:00,
2014-02-04 23:36:00,-2.2,-9.5,30.54,NNW,338,7.1,10.7,70,0.00,,,0.00,WUHU216HW,2014-02-05 05:36:00,
2014-02-04 23:41:00,-2.3,-9.7,30.54,NW,315,10.7,10.7,70,0.00,,,0.00,WUHU216HW,2014-02-05 05:41:00,
2014-02-04 23:46:00,-2.2,-9.5,30.54,NW,315,8.4,10.7,70,0.00,,,0.00,WUHU216HW,2014-02-05 05:46:00,
2014-02-04 23:51:00,-2.2,-9.5,30.55,NW,315,13.1,13.1,70,0.00,,,0.00,WUHU216HW,2014-02-05 05:51:00,
2014-02-04 23:56:00,-2.2,-9.5,30.54,NNW,338,11.4,13.1,70,0.00,,,0.00,WUHU216HW,2014-02-05 05:56:00,